Погода в Пиньчуве

Польша     50°31′15″N   20°31′54″E
темп.,
°C
ветер,
м/с
пор.,
м/с
влажн.,
%
обл.,
%
осадки,
мм/ч
давл.,
гПа
погр.,
м
26 октября, вт
вт2623:00+6ююв006537 0.0 102410
02:00+5вюв006897 0.0 102410
05:00+4з0070100 0.0 102310
08:00+4ююз1169100 0.0 102310
11:00+9ююз2352100 0.0 1023270
14:00+12юз4542100 0.0 1022648
17:00+9юз3359100 0.0 102243
20:00+7зюз3765100 0.0 1023147
27 октября, ср
ср2723:00+6зюз497012 0.0 1024169
02:00+6зюз387625 0.0 1024127
05:00+6з3781100 0.0 1025121
08:00+6з358373 0.0 102692
11:00+12зюз466399 0.0 1026494
14:00+14з465686 0.0 1025937
17:00+11зюз3368100 0.0 102533
20:00+9зюз337588 0.0 102540
28 октября, чт
чт2823:00+8юз3781100 0.0 1026109
02:00+8зюз33835 0.0 102636
05:00+7зюз228672 0.0 102625
08:00+7юз22835 0.0 102712
11:00+13ююз23585 0.0 1026306
14:00+15ююв22475 0.0 1025509
17:00+12юв226019 0.0 102416
20:00+9вюв226630 0.0 102518
29 октября, пт
пт2923:00+8вюв33696 0.0 102427
02:00+6вюв22715 0.0 102427
05:00+6юв227112 0.0 102324
08:00+5юв23705 0.0 102333
11:00+12юв35485 0.0 1022288
14:00+16ююв35395 0.0 1020555
17:00+13юв225233 0.0 102016
20:00+9юв345923 0.0 102042
30 октября, сб
сб3023:00+8ююв336075 0.0 102033
02:00+7ююв116594 0.0 102010
05:00+6ююв22625 0.0 102010
08:00+6ююв22574 0.0 102111
11:00+12ю224163 0.0 1021224
14:00+15ююв2335100 0.0 1020396
17:00+11вюв22505 0.0 102011
20:00+9вюв225878 0.0 102016